{"data":{"norad_id":54789,"epoch":"2026-09-20T22:00:03.000096Z","epoch_age_seconds":53837,"freshness":"FRESH","line1":"1 54789U 22175AH  26263.91670139  .00043927  00000+0  14788-2 0  9999","line2":"2 54789  53.1600 215.2123 0001816  80.4199  43.5780 15.30367762  5702","mean_motion":15.30367762,"eccentricity":0.0001816,"inclination_deg":53.16,"raan_deg":215.2123,"arg_perigee_deg":80.4199,"mean_anomaly_deg":43.578,"bstar":0.0014788,"rev_number":570,"period_min":94.095029688687,"perigee_km":473.4697303065,"apogee_km":475.95868586528,"semimajor_km":6852.8512080859,"source":"CELESTRAK","updated_at":"2026-09-21T09:00:33.126465Z"}}